Notices

What's New in latest Release from April 7th, 2021:

- Updated Glossary, including Speed of Maximum Gust, and Total Hourly Precipitation

- Updated national and regional climate services offices contacts and prices information

- Addition of station inventory lists for 1981-2010, 1971-2000, and 1961-1990 Normals.

If you haven't already, please take our survey and provide feedback about our website: https://eccc.sondage-survey.ca/f/LanguageSelection.aspx?s=442ca660-fcf1-47c0-95a9-59707d6fd709

Hourly Data Report for September 23, 2020

OTTAWA INTL A
ONTARIO
Current Station Operator: NAVCAN

45°19'00.000" N
75°40'00.000" W
114.90 m
6106001
71628
YOW

Download Data

Hourly Data (September 2020)
Hourly Data Report for September 23, 2020
TIME
LST
Temp Definition
°C
Dew Point Definition
°C
Rel Hum Definition
%
Precip. Amount Definition
mm

Wind Dir Definition
10's deg

Wind Spd Definition
km/h
Visibility Definition
km
Stn Press Definition
kPa
Hmdx Definition


Wind Chill Definition


Weather Definition


00:00 10.6 8.0 84   24 14 24.1 99.74     LegendNANA
01:00 10.5 8.4 86   25 14 24.1 99.69     Mainly Clear
02:00 9.3 7.6 89   24 11 24.1 99.66     LegendNANA
03:00 8.9 7.5 91   25 10 24.1 99.64     LegendNANA
04:00 10.0 8.4 90   27 9 24.1 99.62     Mostly Cloudy
05:00 11.5 9.6 88   28 10 24.1 99.65     LegendNANA
06:00 11.8 10.1 89   28 16 24.1 99.66     LegendNANA
07:00 12.6 10.7 88   30 14 24.1 99.68     Mainly Clear
08:00 14.0 11.5 85   28 16 24.1 99.73     LegendNANA
09:00 16.3 12.4 78   29 19 24.1 99.73     LegendNANA
10:00 18.4 13.3 71   29 19 24.1 99.71     Clear
11:00 20.1 14.2 68   29 13 24.1 99.67     LegendNANA
12:00 21.7 14.3 62   28 20 24.1 99.64 25   LegendNANA
13:00 22.6 13.7 56   29 23 24.1 99.62 26   Mainly Clear
14:00 22.7 13.3 55   27 21 24.1 99.57 26   LegendNANA
15:00 22.4 11.7 50   27 21 24.1 99.55 25   LegendNANA
16:00 22.8 10.7 46   27 27 24.1 99.57     Mainly Clear
17:00 21.5 10.9 50   28 18 24.1 99.61     LegendNANA
18:00 18.1 10.8 62   27 10 24.1 99.64     LegendNANA
19:00 17.3 10.7 65   25 9 24.1 99.69     Clear
20:00 17.2 10.7 65   31 9 24.1 99.73     LegendNANA
21:00 15.0 10.9 76   24 8 24.1 99.74     LegendNANA
22:00 13.5 10.7 83   22 9 24.1 99.74     Clear
23:00 12.3 10.4 88   18 5 24.1 99.76     LegendNANA

Notes on Data Quality.

Legend

  • E = Estimated
  • M = Missing
  • NA = Not Available*
  • [empty] = Indicates an unobserved value
Date modified: